User: anonymous
Location: NJAA Observatory
(40.6819°N, 74.8979°W)
Time: 08:14:23
(UTC-04:00)
Language:

Cosmos 1939 Rocket - Orbit

View from above orbital plane
View from above orbital plane
View from above satellite
View from above satellite

Ground track
Ground track

The orbit data is extracted from the following two-line orbital elements,

1 19046U 88032B   14273.69829184  .00002299  00000-0  18771-3 0    63
2 19046 097.6384 326.3463 0039616 103.7470 256.8168 14.99782693424018
Epoch (UTC): 30 September 2014 16:45:32
Eccentricity: 0.0039616
inclination: 97.6384°
perigee height: 540 km
apogee height: 595 km
right ascension of ascending node: 326.3463°
argument of perigee: 103.7470°
revolutions per day: 14.99782693
mean anomaly at epoch: 256.8168°
orbit number at epoch: 42401

The dashed part of the orbit path shows where the satellite is in the earth's shadow,  

DLR